timestamp,wind_dir_avg,wind_spd_avg,wind_spd_max_dir,wind_spd_gust,battery_voltage,lat,long
2023-11-20 00:04:01+00:00,308.0,7.52,305.0,9.99,12.33,47.59359,-54.27349
2023-11-20 00:14:01+00:00,321.0,7.63,324.0,9.52,12.25,47.59359,-54.27349
2023-11-20 00:24:01+00:00,314.0,7.85,316.0,8.9,12.25,47.59359,-54.27349
2023-11-20 00:34:01+00:00,314.0,6.85,311.0,8.93,12.25,47.59359,-54.27349
2023-11-20 00:44:01+00:00,320.0,7.26,316.0,8.54,12.25,47.59359,-54.27349
2023-11-20 00:54:01+00:00,317.0,7.6,320.0,8.58,12.25,47.59359,-54.27349
2023-11-20 01:04:01+00:00,311.0,6.76,308.0,8.02,12.25,47.59359,-54.27349
2023-11-20 01:14:01+00:00,320.0,6.61,324.0,7.74,12.17,47.59359,-54.27349
2023-11-20 01:24:01+00:00,314.0,5.79,320.0,6.74,12.17,47.59359,-54.27349
2023-11-20 01:34:01+00:00,314.0,7.25,307.0,8.94,12.17,47.59359,-54.27349
2023-11-20 01:44:01+00:00,316.0,6.87,321.0,8.92,12.17,47.59359,-54.27349
2023-11-20 01:54:01+00:00,295.0,6.5,304.0,7.64,12.17,47.59359,-54.27349
2023-11-20 02:04:01+00:00,306.0,6.4,311.0,8.13,12.17,47.59359,-54.27349
2023-11-20 02:14:01+00:00,301.0,7.4,308.0,8.98,12.17,47.59359,-54.27349
2023-11-20 02:24:01+00:00,306.0,8.18,312.0,11.68,12.17,47.59359,-54.27349
2023-11-20 02:34:01+00:00,311.0,6.99,309.0,8.54,12.17,47.59359,-54.27349
2023-11-20 02:44:01+00:00,315.0,6.13,324.0,7.77,12.17,47.59359,-54.27349
2023-11-20 02:54:01+00:00,288.0,6.65,300.0,7.51,12.17,47.59359,-54.27349
2023-11-20 03:04:01+00:00,286.0,5.0,281.0,6.26,12.17,47.59359,-54.27349
2023-11-20 03:14:00+00:00,283.0,5.1,301.0,7.61,12.17,47.59359,-54.27349
2023-11-20 03:24:00+00:00,282.0,3.84,282.0,4.77,12.17,47.59359,-54.27349
2023-11-20 03:34:00+00:00,277.0,5.45,280.0,6.84,12.17,47.59359,-54.27349
2023-11-20 03:44:00+00:00,290.0,3.87,269.0,5.33,12.17,47.59359,-54.27349
2023-11-20 03:54:00+00:00,288.0,4.46,281.0,6.72,12.17,47.59359,-54.27349
2023-11-20 04:04:00+00:00,289.0,5.2,299.0,7.63,12.17,47.59359,-54.27349
2023-11-20 04:14:01+00:00,320.0,4.27,324.0,6.15,12.17,47.59359,-54.27349
2023-11-20 04:24:01+00:00,320.0,4.47,316.0,5.77,12.17,47.59359,-54.27349
2023-11-20 04:34:01+00:00,314.0,4.07,310.0,5.13,12.17,47.59359,-54.27349
2023-11-20 04:44:01+00:00,321.0,3.44,324.0,4.32,12.17,47.59359,-54.27349
2023-11-20 04:54:01+00:00,315.0,2.7,305.0,3.87,12.17,47.59359,-54.27349
2023-11-20 05:04:01+00:00,312.0,3.05,320.0,3.87,12.17,47.59359,-54.27349
2023-11-20 05:14:01+00:00,301.0,3.31,305.0,4.22,12.09,47.59359,-54.27349
2023-11-20 05:24:01+00:00,300.0,3.29,306.0,4.18,12.09,47.59359,-54.27349
2023-11-20 05:34:01+00:00,305.0,3.18,303.0,3.85,12.09,47.59359,-54.27349
2023-11-20 05:44:01+00:00,309.0,3.45,306.0,4.1,12.09,47.59359,-54.27349
2023-11-20 05:54:01+00:00,306.0,5.04,308.0,5.94,12.09,47.59359,-54.27349
2023-11-20 06:04:01+00:00,303.0,4.92,304.0,5.71,12.09,47.59359,-54.27349
2023-11-20 06:14:01+00:00,296.0,3.57,302.0,4.3,12.09,47.59359,-54.27349
2023-11-20 06:24:01+00:00,298.0,2.94,297.0,3.54,12.09,47.59359,-54.27349
2023-11-20 06:34:01+00:00,297.0,2.52,278.0,3.15,12.09,47.59359,-54.27349
2023-11-20 06:44:01+00:00,296.0,1.62,279.0,2.09,12.09,47.59359,-54.27349
2023-11-20 06:54:01+00:00,318.0,1.32,289.0,1.78,12.09,47.59359,-54.27349
2023-11-20 07:04:01+00:00,286.0,2.38,298.0,3.04,12.09,47.59359,-54.27349
2023-11-20 07:14:01+00:00,294.0,1.43,289.0,1.93,12.09,47.59359,-54.27349
2023-11-20 07:24:01+00:00,290.0,3.55,287.0,4.44,12.09,47.59359,-54.27349
2023-11-20 07:34:01+00:00,275.0,2.61,277.0,3.14,12.09,47.59359,-54.27349
2023-11-20 07:44:01+00:00,253.0,2.66,257.0,3.52,12.09,47.59359,-54.27349
2023-11-20 07:54:01+00:00,280.0,2.54,278.0,3.48,12.09,47.59359,-54.27349
2023-11-20 08:04:01+00:00,257.0,2.37,265.0,2.83,12.09,47.59359,-54.27349
2023-11-20 08:14:01+00:00,268.0,3.15,256.0,4.52,12.09,47.59359,-54.27349
2023-11-20 08:24:01+00:00,275.0,3.56,271.0,4.3,12.09,47.59359,-54.27349
2023-11-20 08:34:01+00:00,257.0,3.37,270.0,4.93,12.09,47.59359,-54.27349
2023-11-20 08:44:01+00:00,248.0,2.29,250.0,3.01,12.09,47.59359,-54.27349
2023-11-20 08:54:01+00:00,263.0,4.16,258.0,5.72,12.09,47.59359,-54.27349
2023-11-20 09:04:01+00:00,269.0,4.09,267.0,5.16,12.09,47.59359,-54.27349
2023-11-20 09:14:00+00:00,278.0,4.92,279.0,5.93,12.09,47.59359,-54.27349
2023-11-20 09:24:00+00:00,275.0,5.18,275.0,5.79,12.09,47.59359,-54.27349
2023-11-20 09:34:00+00:00,296.0,4.41,297.0,4.93,12.09,47.59359,-54.27349
2023-11-20 09:44:00+00:00,291.0,4.32,292.0,5.48,12.09,47.59359,-54.27349
2023-11-20 09:54:00+00:00,281.0,4.75,280.0,5.23,12.09,47.59359,-54.27349
2023-11-20 10:04:00+00:00,286.0,4.24,288.0,4.71,12.09,47.59359,-54.27349
2023-11-20 10:14:01+00:00,283.0,3.9,286.0,4.61,12.09,47.59359,-54.27349
2023-11-20 10:24:01+00:00,276.0,4.35,270.0,5.2,12.09,47.59359,-54.27349
2023-11-20 10:34:01+00:00,276.0,3.91,271.0,4.32,12.09,47.59359,-54.27349
2023-11-20 10:44:01+00:00,284.0,2.99,274.0,3.81,12.09,47.59359,-54.27349
2023-11-20 10:54:01+00:00,301.0,2.95,299.0,3.48,12.09,47.59359,-54.27349
2023-11-20 11:04:01+00:00,298.0,3.55,300.0,4.08,12.09,47.59359,-54.27349
2023-11-20 11:14:00+00:00,298.0,3.65,300.0,4.37,12.09,47.59359,-54.27349
2023-11-20 11:24:00+00:00,307.0,4.82,307.0,5.41,12.09,47.59359,-54.27349
2023-11-20 11:34:00+00:00,293.0,4.89,297.0,5.31,12.09,47.59359,-54.27349
2023-11-20 11:44:00+00:00,322.0,4.87,328.0,5.45,12.09,47.59359,-54.27349
2023-11-20 11:54:00+00:00,315.0,4.98,314.0,5.38,12.09,47.59359,-54.27349
2023-11-20 12:04:00+00:00,326.0,4.43,327.0,5.13,12.09,47.59359,-54.27349
2023-11-20 12:14:00+00:00,324.0,4.14,320.0,4.8,12.17,47.59359,-54.27349
2023-11-20 12:24:00+00:00,331.0,4.2,329.0,4.8,12.17,47.59359,-54.27349
2023-11-20 12:34:00+00:00,304.0,4.53,300.0,5.1,12.17,47.59359,-54.27349
2023-11-20 12:44:00+00:00,314.0,2.31,311.0,2.66,12.17,47.59359,-54.27349
2023-11-20 12:54:00+00:00,301.0,3.59,302.0,4.11,12.17,47.59359,-54.27349
2023-11-20 13:04:00+00:00,283.0,4.52,281.0,5.11,12.17,47.59359,-54.27349
2023-11-20 13:14:00+00:00,322.0,2.19,314.0,2.95,12.73,47.59359,-54.27349
2023-11-20 13:24:00+00:00,316.0,2.58,326.0,3.24,12.73,47.59359,-54.27349
2023-11-20 13:34:00+00:00,326.0,2.29,331.0,2.81,12.73,47.59359,-54.27349
2023-11-20 13:44:00+00:00,326.0,1.98,322.0,3.48,12.73,47.59359,-54.27349
2023-11-20 13:54:00+00:00,280.0,1.84,302.0,2.29,12.73,47.59359,-54.27349
2023-11-20 14:04:00+00:00,328.0,1.55,329.0,1.86,12.73,47.59359,-54.27349
2023-11-20 14:14:00+00:00,333.0,3.03,327.0,3.53,14.0,47.59359,-54.27349
2023-11-20 14:24:00+00:00,311.0,2.35,305.0,2.87,14.0,47.59359,-54.27349
2023-11-20 14:34:00+00:00,296.0,0.96,290.0,1.41,14.0,47.59359,-54.27349
2023-11-20 14:44:00+00:00,288.0,2.45,289.0,3.07,14.0,47.59359,-54.27349
2023-11-20 14:54:00+00:00,300.0,2.36,304.0,2.88,14.0,47.59359,-54.27349
2023-11-20 15:04:00+00:00,286.0,3.32,285.0,3.89,14.0,47.59359,-54.27349
2023-11-20 15:14:00+00:00,301.0,2.41,301.0,3.03,13.92,47.59359,-54.27349
2023-11-20 15:24:00+00:00,305.0,2.72,306.0,3.39,13.92,47.59359,-54.27349
2023-11-20 15:34:00+00:00,305.0,2.85,306.0,3.79,13.92,47.59359,-54.27349
2023-11-20 15:44:00+00:00,311.0,1.94,293.0,3.14,13.92,47.59359,-54.27349
2023-11-20 15:54:00+00:00,342.0,2.01,345.0,2.59,13.92,47.59359,-54.27349
2023-11-20 16:04:00+00:00,345.0,1.47,341.0,1.84,13.92,47.59359,-54.27349
2023-11-20 16:14:00+00:00,346.0,2.41,348.0,2.73,14.32,47.59359,-54.27349
2023-11-20 16:24:00+00:00,335.0,3.71,338.0,4.57,14.32,47.59359,-54.27349
2023-11-20 16:34:00+00:00,329.0,3.7,333.0,4.71,14.32,47.59359,-54.27349
2023-11-20 16:44:00+00:00,325.0,3.44,328.0,4.41,14.32,47.59359,-54.27349
2023-11-20 16:54:00+00:00,320.0,4.55,324.0,5.18,14.32,47.59359,-54.27349
2023-11-20 17:04:00+00:00,311.0,3.08,315.0,3.74,14.32,47.59359,-54.27349
2023-11-20 17:14:01+00:00,290.0,3.02,289.0,3.46,13.68,47.59359,-54.27349
2023-11-20 17:24:01+00:00,282.0,3.34,284.0,4.2,13.68,47.59359,-54.27349
2023-11-20 17:34:01+00:00,298.0,1.41,301.0,1.94,13.68,47.59359,-54.27349
2023-11-20 17:44:01+00:00,317.0,1.96,322.0,3.4,13.68,47.59359,-54.27349
2023-11-20 17:54:01+00:00,17.0,2.7,11.0,3.38,13.68,47.59359,-54.27349
2023-11-20 18:04:01+00:00,20.0,2.19,9.0,2.67,13.68,47.59359,-54.27349
2023-11-20 18:14:00+00:00,25.0,2.12,28.0,2.6,14.32,47.59359,-54.27349
2023-11-20 18:24:00+00:00,2.0,1.59,12.0,1.96,14.32,47.59359,-54.27349
2023-11-20 18:34:00+00:00,355.0,2.17,355.0,2.5,14.32,47.59359,-54.27349
2023-11-20 18:44:00+00:00,22.0,1.36,16.0,1.58,14.32,47.59359,-54.27349
2023-11-20 18:54:00+00:00,22.0,0.99,32.0,1.22,14.32,47.59359,-54.27349
2023-11-20 19:04:00+00:00,357.0,1.88,358.0,2.73,14.32,47.59359,-54.27349
2023-11-20 19:14:01+00:00,349.0,2.03,356.0,2.55,13.21,47.59359,-54.27349
2023-11-20 19:24:01+00:00,355.0,1.58,352.0,2.07,13.21,47.59359,-54.27349
2023-11-20 19:34:01+00:00,31.0,0.5,18.0,0.93,13.21,47.59359,-54.27349
2023-11-20 19:44:01+00:00,18.0,0.59,18.0,0.77,13.21,47.59359,-54.27349
2023-11-20 19:54:01+00:00,341.0,0.72,338.0,0.92,13.21,47.59359,-54.27349
2023-11-20 20:04:01+00:00,341.0,0.37,336.0,0.49,13.21,47.59359,-54.27349
2023-11-20 20:14:00+00:00,342.0,0.67,343.0,1.09,12.65,47.59359,-54.27349
2023-11-20 20:24:00+00:00,310.0,0.19,305.0,0.3,12.65,47.59359,-54.27349
2023-11-20 20:34:00+00:00,285.0,0.22,283.0,0.4,12.65,47.59359,-54.27349
2023-11-20 20:44:00+00:00,248.0,0.77,252.0,1.09,12.65,47.59359,-54.27349
2023-11-20 20:54:00+00:00,327.0,2.08,329.0,2.43,12.65,47.59359,-54.27349
2023-11-20 21:04:00+00:00,326.0,1.37,327.0,1.64,12.65,47.59359,-54.27349
2023-11-20 21:14:01+00:00,304.0,1.3,315.0,1.62,12.49,47.59359,-54.27349
2023-11-20 21:24:01+00:00,316.0,1.77,321.0,2.45,12.49,47.59359,-54.27349
2023-11-20 21:34:01+00:00,313.0,1.38,324.0,1.63,12.49,47.59359,-54.27349
2023-11-20 21:44:01+00:00,315.0,1.27,326.0,1.79,12.49,47.59359,-54.27349
2023-11-20 21:54:01+00:00,323.0,1.53,325.0,1.86,12.49,47.59359,-54.27349
2023-11-20 22:04:01+00:00,281.0,0.64,273.0,0.98,12.49,47.59359,-54.27349
2023-11-20 22:14:01+00:00,247.0,0.58,251.0,0.76,12.49,47.59359,-54.27349
2023-11-20 22:24:01+00:00,303.0,1.37,309.0,1.75,12.49,47.59359,-54.27349
2023-11-20 22:34:01+00:00,346.0,3.13,347.0,3.46,12.49,47.59359,-54.27349
2023-11-20 22:44:01+00:00,347.0,2.37,350.0,2.67,12.49,47.59359,-54.27349
2023-11-20 22:54:01+00:00,326.0,1.65,321.0,1.87,12.49,47.59359,-54.27349
2023-11-20 23:04:01+00:00,342.0,2.25,348.0,2.54,12.49,47.59359,-54.27349
2023-11-20 23:14:01+00:00,312.0,2.3,316.0,2.79,12.41,47.59359,-54.27349
2023-11-20 23:24:01+00:00,319.0,2.87,319.0,3.56,12.41,47.59359,-54.27349
2023-11-20 23:34:01+00:00,308.0,2.79,318.0,3.28,12.41,47.59359,-54.27349
2023-11-20 23:44:01+00:00,293.0,2.73,303.0,3.69,12.41,47.59359,-54.27349
2023-11-20 23:54:01+00:00,306.0,2.43,306.0,3.06,12.41,47.59359,-54.27349
